Darstellungsparameter: Aktuell verwendete Einstellungen:
Skalierung der Graphiken ... ?
xyx+y,   Skalierungsfaktor:      Skalierung: Modus: x, Faktor: 1
Darstellungszeitraum ... ?
Vom - - bis: - -   Zeitraum: 01.03.2021 - 01.03.2021
Min/Max/Avg-Anzeige ... ?
Zeige MMA aktuell
Zeige MMA Monat
Zeige MMA alles
Zeige --A aktuell
Zeige --A Monat
Zeige --A alles
Keine MMA-Anzeige
MMA:
Keine MMA-Graphiken
MMA-Basis: 01.03.2021 - 01.03.2021
Quicknavigation für Darstellung... ?
Tage:      1T, 2T, 3T, 5T -1T -2T -3T -5T +1T +2T +3T +5T
Wochen: 1W, 2W, 3W -1W -2W -3W +1W +2W +3W
Monate: 1M, 3M, 6M -1M -3M -6M +1M +3M +6M
Jahre:    1J, 3J, 5J, 10J -1J -3J -5J -10J +1J +3J +5J +10J
Nutze für die Darstellung ... ?
Originaldaten oder Mittelwerte auf ...
Stundenbasis Tagesbasis Wochenbasis
Monatsbasis Jahresbasis      Datenbasis: Original-Daten
Darstellen als:
Statistik (Auto) Statistik J:M      Darstellung:

Der gewünschte Datumsbereich war nicht gültig/verfügbar und wurde korrigiert....
Das angegebene Enddatum (17.07.2029 23:59:59) liegt in der Zukunft.
Das angegebene Startdatum (17.07.2029 00:00:00) liegt in der Zukunft.


Zur Graphik,    zurück zur Übersicht aller Sensoren.
 
Tabellarische Datenbersicht: ?
 
Sensor: Nr:Datum:Temp:Feuchte:Taupunkt:
Aussen-T/F 1 01-03-2021 01:00:00 0.4 C 92 % -0.74 C
2 01-03-2021 01:05:00 0.4 C 93 % -0.6 C
3 01-03-2021 01:10:00 0.3 C 93 % -0.7 C
4 01-03-2021 01:15:00 0.3 C 93 % -0.7 C
5 01-03-2021 01:20:00 0.2 C 93 % -0.79 C
6 01-03-2021 01:25:00 0.2 C 93 % -0.79 C
7 01-03-2021 01:30:00 0.1 C 93 % -0.89 C
8 01-03-2021 01:35:00 0 C 93 % -0.99 C
9 01-03-2021 01:40:00 -0.1 C 93 % -1.09 C
10 01-03-2021 01:45:00 -0.2 C 93 % -1.19 C
11 01-03-2021 01:50:00 -0.2 C 93 % -1.19 C
12 01-03-2021 01:55:00 -0.2 C 93 % -1.19 C
13 01-03-2021 02:00:00 -0.2 C 93 % -1.19 C
14 01-03-2021 02:05:00 -0.1 C 93 % -1.09 C
15 01-03-2021 02:10:00 -0.1 C 94 % -0.95 C
16 01-03-2021 02:15:00 -0.2 C 93 % -1.19 C
17 01-03-2021 02:20:00 -0.2 C 93 % -1.19 C
18 01-03-2021 02:25:00 -0.2 C 94 % -1.05 C
19 01-03-2021 02:30:00 -0.3 C 94 % -1.15 C
20 01-03-2021 02:35:00 -0.3 C 94 % -1.15 C
21 01-03-2021 02:40:00 -0.3 C 94 % -1.15 C
22 01-03-2021 02:45:00 -0.4 C 94 % -1.25 C
23 01-03-2021 02:50:00 -0.4 C 94 % -1.25 C
24 01-03-2021 02:55:00 -0.4 C 94 % -1.25 C
25 01-03-2021 03:00:00 -0.4 C 94 % -1.25 C
Sensor: Nr:Datum:Temp:Feuchte:Taupunkt:
Aussen-T/F 26 01-03-2021 03:05:00 -0.4 C 94 % -1.25 C
27 01-03-2021 03:10:00 -0.5 C 94 % -1.34 C
28 01-03-2021 03:15:00 -0.5 C 94 % -1.34 C
29 01-03-2021 03:20:00 -0.6 C 94 % -1.44 C
30 01-03-2021 03:25:00 -0.6 C 94 % -1.44 C
31 01-03-2021 03:30:00 -0.6 C 94 % -1.44 C
32 01-03-2021 03:35:00 -0.5 C 94 % -1.34 C
33 01-03-2021 03:40:00 -0.6 C 94 % -1.44 C
34 01-03-2021 03:45:00 -0.6 C 94 % -1.44 C
35 01-03-2021 03:50:00 -0.7 C 94 % -1.54 C
36 01-03-2021 03:55:00 -0.7 C 94 % -1.54 C
37 01-03-2021 04:00:00 -0.7 C 94 % -1.54 C
38 01-03-2021 04:05:00 -0.7 C 94 % -1.54 C
39 01-03-2021 04:10:00 -0.8 C 94 % -1.64 C
40 01-03-2021 04:15:00 -0.8 C 94 % -1.64 C
41 01-03-2021 04:20:00 -0.8 C 94 % -1.64 C
42 01-03-2021 04:25:00 -0.9 C 94 % -1.74 C
43 01-03-2021 04:30:00 -1 C 94 % -1.84 C
44 01-03-2021 04:35:00 -1 C 94 % -1.84 C
45 01-03-2021 04:40:00 -1 C 95 % -1.7 C
46 01-03-2021 04:45:00 -1 C 95 % -1.7 C
47 01-03-2021 04:50:00 -1 C 95 % -1.7 C
48 01-03-2021 04:55:00 -1.1 C 95 % -1.8 C
49 01-03-2021 05:00:00 -1.1 C 94 % -1.94 C
50 01-03-2021 05:05:00 -1.2 C 94 % -2.04 C
Sensor: Nr:Datum:Temp:Feuchte:Taupunkt:
Aussen-T/F 51 01-03-2021 05:10:00 -1.2 C 94 % -2.04 C
52 01-03-2021 05:15:00 -1.3 C 95 % -2 C
53 01-03-2021 05:20:00 -1.3 C 95 % -2 C
54 01-03-2021 05:25:00 -1.3 C 94 % -2.14 C
55 01-03-2021 05:30:00 -1.3 C 95 % -2 C
56 01-03-2021 05:35:00 -1.3 C 95 % -2 C
57 01-03-2021 05:40:00 -1.3 C 95 % -2 C
58 01-03-2021 05:45:00 -1.3 C 95 % -2 C
59 01-03-2021 05:50:00 -1.3 C 95 % -2 C
60 01-03-2021 05:55:00 -1.4 C 95 % -2.1 C
61 01-03-2021 06:00:00 -1.4 C 95 % -2.1 C
62 01-03-2021 06:05:00 -1.5 C 95 % -2.19 C
63 01-03-2021 06:10:00 -1.5 C 95 % -2.19 C
64 01-03-2021 06:15:00 -1.6 C 95 % -2.29 C
65 01-03-2021 06:20:00 -1.6 C 95 % -2.29 C
66 01-03-2021 06:25:00 -1.6 C 95 % -2.29 C
67 01-03-2021 06:30:00 -1.5 C 95 % -2.19 C
68 01-03-2021 06:35:00 -1.4 C 95 % -2.1 C
69 01-03-2021 06:40:00 -1.4 C 95 % -2.1 C
70 01-03-2021 06:45:00 -1.4 C 95 % -2.1 C
71 01-03-2021 06:50:00 -1.4 C 95 % -2.1 C
72 01-03-2021 06:55:00 -1.4 C 95 % -2.1 C
73 01-03-2021 07:00:00 -1.5 C 95 % -2.19 C
74 01-03-2021 07:05:00 -1.6 C 95 % -2.29 C
75 01-03-2021 07:10:00 -1.7 C 95 % -2.39 C
Sensor: Nr:Datum:Temp:Feuchte:Taupunkt:
Aussen-T/F 76 01-03-2021 07:15:00 -1.7 C 95 % -2.39 C
77 01-03-2021 07:20:00 -1.8 C 95 % -2.49 C
78 01-03-2021 07:25:00 -1.8 C 95 % -2.49 C
79 01-03-2021 07:30:00 -1.8 C 95 % -2.49 C
80 01-03-2021 07:35:00 -1.8 C 95 % -2.49 C
81 01-03-2021 07:40:00 -1.8 C 95 % -2.49 C
82 01-03-2021 07:45:00 -1.7 C 95 % -2.39 C
83 01-03-2021 07:50:00 -1.7 C 95 % -2.39 C
84 01-03-2021 07:55:00 -1.7 C 95 % -2.39 C
85 01-03-2021 08:00:00 -1.7 C 95 % -2.39 C
86 01-03-2021 08:05:00 -1.6 C 95 % -2.29 C
87 01-03-2021 08:10:00 -1.6 C 95 % -2.29 C
88 01-03-2021 08:15:00 -1.6 C 95 % -2.29 C
89 01-03-2021 08:20:00 -1.6 C 95 % -2.29 C
90 01-03-2021 08:25:00 -1.5 C 95 % -2.19 C
91 01-03-2021 08:30:00 -1.4 C 95 % -2.1 C
92 01-03-2021 08:35:00 -1.4 C 95 % -2.1 C
93 01-03-2021 08:40:00 -1.3 C 95 % -2 C
94 01-03-2021 08:45:00 -1.3 C 95 % -2 C
95 01-03-2021 08:50:00 -1.2 C 95 % -1.9 C
96 01-03-2021 08:55:00 -1.2 C 96 % -1.75 C
97 01-03-2021 09:00:00 -1.1 C 95 % -1.8 C
98 01-03-2021 09:05:00 -1 C 95 % -1.7 C
99 01-03-2021 09:10:00 -0.9 C 96 % -1.46 C
100 01-03-2021 09:15:00 -0.9 C 96 % -1.46 C
Sensor: Nr:Datum:Temp:Feuchte:Taupunkt:
Aussen-T/F 101 01-03-2021 09:20:00 -0.8 C 96 % -1.36 C
102 01-03-2021 09:25:00 -0.7 C 96 % -1.26 C
103 01-03-2021 09:30:00 -0.6 C 96 % -1.16 C
104 01-03-2021 09:35:00 -0.4 C 96 % -0.96 C
105 01-03-2021 09:40:00 -0.3 C 96 % -0.86 C
106 01-03-2021 09:45:00 -0.2 C 96 % -0.76 C
107 01-03-2021 09:50:00 -0.1 C 96 % -0.66 C
108 01-03-2021 09:55:00 0.1 C 96 % -0.46 C
109 01-03-2021 10:00:00 0.2 C 96 % -0.36 C
110 01-03-2021 10:05:00 0.3 C 96 % -0.26 C
111 01-03-2021 10:10:00 0.4 C 96 % -0.16 C
112 01-03-2021 10:15:00 0.7 C 96 % 0.14 C
113 01-03-2021 10:20:00 0.9 C 96 % 0.34 C
114 01-03-2021 10:25:00 1.2 C 96 % 0.63 C
115 01-03-2021 10:30:00 1.4 C 96 % 0.83 C
116 01-03-2021 10:35:00 1.7 C 97 % 1.28 C
117 01-03-2021 10:40:00 1.9 C 97 % 1.48 C
118 01-03-2021 10:45:00 2.2 C 97 % 1.77 C
119 01-03-2021 10:50:00 2.3 C 97 % 1.87 C
120 01-03-2021 10:55:00 2.6 C 97 % 2.17 C
121 01-03-2021 11:00:00 2.8 C 97 % 2.37 C
122 01-03-2021 11:05:00 3.1 C 97 % 2.67 C
123 01-03-2021 11:10:00 3.3 C 97 % 2.87 C
124 01-03-2021 11:15:00 3.4 C 97 % 2.97 C
125 01-03-2021 11:20:00 3.6 C 97 % 3.17 C
Sensor: Nr:Datum:Temp:Feuchte:Taupunkt:
Aussen-T/F 126 01-03-2021 11:25:00 3.8 C 96 % 3.22 C
127 01-03-2021 11:30:00 4 C 96 % 3.42 C
128 01-03-2021 11:35:00 4.2 C 95 % 3.47 C
129 01-03-2021 11:40:00 4.3 C 94 % 3.42 C
130 01-03-2021 11:45:00 4.6 C 93 % 3.57 C
131 01-03-2021 11:50:00 4.8 C 91 % 3.46 C
132 01-03-2021 11:55:00 4.9 C 90 % 3.4 C
133 01-03-2021 12:00:00 5.2 C 88 % 3.38 C
134 01-03-2021 12:05:00 5.6 C 87 % 3.61 C
135 01-03-2021 12:10:00 5.9 C 84 % 3.41 C
136 01-03-2021 12:15:00 6.2 C 82 % 3.36 C
137 01-03-2021 12:20:00 6.6 C 81 % 3.58 C
138 01-03-2021 12:25:00 6.8 C 80 % 3.6 C
139 01-03-2021 12:30:00 7.2 C 80 % 3.99 C
140 01-03-2021 12:35:00 7.6 C 78 % 4.02 C
141 01-03-2021 12:40:00 7.9 C 76 % 3.94 C
142 01-03-2021 12:45:00 8.2 C 76 % 4.23 C
143 01-03-2021 12:50:00 8.3 C 74 % 3.95 C
144 01-03-2021 12:55:00 8.5 C 74 % 4.14 C
145 01-03-2021 13:00:00 8.7 C 74 % 4.33 C
146 01-03-2021 13:05:00 8.9 C 72 % 4.14 C
147 01-03-2021 13:10:00 9.1 C 71 % 4.13 C
148 01-03-2021 13:15:00 9.4 C 71 % 4.42 C
149 01-03-2021 13:20:00 9.6 C 69 % 4.2 C
150 01-03-2021 13:25:00 9.8 C 68 % 4.18 C
Sensor: Nr:Datum:Temp:Feuchte:Taupunkt:
Aussen-T/F 151 01-03-2021 13:30:00 10.1 C 67 % 4.26 C
152 01-03-2021 13:35:00 10.3 C 65 % 4.02 C
153 01-03-2021 13:40:00 10.4 C 65 % 4.11 C
154 01-03-2021 13:45:00 10.5 C 64 % 3.99 C
155 01-03-2021 13:50:00 10.7 C 63 % 3.95 C
156 01-03-2021 13:55:00 11.1 C 62 % 4.11 C
157 01-03-2021 14:00:00 11.3 C 60 % 3.83 C
158 01-03-2021 14:05:00 11.4 C 60 % 3.92 C
159 01-03-2021 14:10:00 11.6 C 58 % 3.63 C
160 01-03-2021 14:15:00 11.7 C 59 % 3.97 C
161 01-03-2021 14:20:00 11.8 C 59 % 4.06 C
162 01-03-2021 14:25:00 12 C 57 % 3.76 C
163 01-03-2021 14:30:00 12.1 C 57 % 3.85 C
164 01-03-2021 14:35:00 12.2 C 56 % 3.69 C
165 01-03-2021 14:40:00 12.2 C 56 % 3.69 C
166 01-03-2021 14:45:00 12.3 C 55 % 3.53 C
167 01-03-2021 14:50:00 12.3 C 55 % 3.53 C
168 01-03-2021 14:55:00 12.3 C 57 % 4.04 C
169 01-03-2021 15:00:00 12.4 C 55 % 3.62 C
170 01-03-2021 15:05:00 12.4 C 54 % 3.36 C
171 01-03-2021 15:10:00 12.4 C 57 % 4.13 C
172 01-03-2021 15:15:00 12.5 C 57 % 4.22 C
173 01-03-2021 15:20:00 12.5 C 56 % 3.97 C
174 01-03-2021 15:25:00 12.5 C 56 % 3.97 C
175 01-03-2021 15:30:00 12.6 C 55 % 3.81 C
Sensor: Nr:Datum:Temp:Feuchte:Taupunkt:
Aussen-T/F 176 01-03-2021 15:35:00 12.8 C 54 % 3.74 C
177 01-03-2021 15:40:00 12.9 C 53 % 3.56 C
178 01-03-2021 15:45:00 13.1 C 53 % 3.75 C
179 01-03-2021 15:50:00 13.2 C 54 % 4.11 C
180 01-03-2021 15:55:00 13.3 C 55 % 4.46 C
181 01-03-2021 16:00:00 13.4 C 55 % 4.55 C
182 01-03-2021 16:05:00 13.6 C 53 % 4.21 C
183 01-03-2021 16:10:00 13.7 C 54 % 4.57 C
184 01-03-2021 16:15:00 13.7 C 53 % 4.31 C
185 01-03-2021 16:20:00 13.7 C 54 % 4.57 C
186 01-03-2021 16:25:00 13.8 C 55 % 4.93 C
187 01-03-2021 16:30:00 13.8 C 53 % 4.4 C
188 01-03-2021 16:35:00 13.9 C 54 % 4.76 C
189 01-03-2021 16:40:00 13.9 C 53 % 4.49 C
190 01-03-2021 16:45:00 13.8 C 54 % 4.66 C
191 01-03-2021 16:50:00 13.8 C 55 % 4.93 C
192 01-03-2021 16:55:00 13.8 C 54 % 4.66 C
193 01-03-2021 17:00:00 13.8 C 54 % 4.66 C
194 01-03-2021 17:05:00 13.9 C 55 % 5.02 C
195 01-03-2021 17:10:00 13.9 C 54 % 4.76 C
196 01-03-2021 17:15:00 13.9 C 57 % 5.53 C
197 01-03-2021 17:20:00 14 C 58 % 5.88 C
198 01-03-2021 17:25:00 14 C 59 % 6.12 C
199 01-03-2021 17:30:00 13.9 C 58 % 5.78 C
200 01-03-2021 17:35:00 13.8 C 58 % 5.69 C
Sensor: Nr:Datum:Temp:Feuchte:Taupunkt:
Aussen-T/F 201 01-03-2021 17:40:00 13.6 C 60 % 5.99 C
202 01-03-2021 17:45:00 13.1 C 61 % 5.76 C
203 01-03-2021 17:50:00 12.6 C 63 % 5.75 C
204 01-03-2021 17:55:00 11.9 C 64 % 5.32 C
205 01-03-2021 18:00:00 11.4 C 66 % 5.28 C
206 01-03-2021 18:05:00 10.8 C 68 % 5.14 C
207 01-03-2021 18:10:00 10.3 C 69 % 4.87 C
208 01-03-2021 18:15:00 9.9 C 71 % 4.9 C
209 01-03-2021 18:20:00 9.5 C 72 % 4.71 C
210 01-03-2021 18:25:00 9.1 C 73 % 4.52 C
211 01-03-2021 18:30:00 8.8 C 74 % 4.43 C
212 01-03-2021 18:35:00 8.5 C 75 % 4.33 C
213 01-03-2021 18:40:00 8.3 C 76 % 4.33 C
214 01-03-2021 18:45:00 8.1 C 77 % 4.32 C
215 01-03-2021 18:50:00 7.8 C 78 % 4.21 C
216 01-03-2021 18:55:00 7.7 C 78 % 4.11 C
217 01-03-2021 19:00:00 7.5 C 79 % 4.1 C
218 01-03-2021 19:05:00 7.3 C 79 % 3.91 C
219 01-03-2021 19:10:00 7.2 C 79 % 3.81 C
220 01-03-2021 19:15:00 7.1 C 80 % 3.89 C
221 01-03-2021 19:20:00 6.9 C 80 % 3.7 C
222 01-03-2021 19:25:00 6.8 C 81 % 3.77 C
223 01-03-2021 19:30:00 6.7 C 81 % 3.68 C
224 01-03-2021 19:35:00 6.6 C 81 % 3.58 C
225 01-03-2021 19:40:00 6.6 C 81 % 3.58 C
Sensor: Nr:Datum:Temp:Feuchte:Taupunkt:
Aussen-T/F 226 01-03-2021 19:45:00 6.4 C 81 % 3.38 C
227 01-03-2021 19:50:00 6.3 C 82 % 3.46 C

Legende:
   Min
   Max


Maximal/Minimal-Werte vom 01.03.2021 - 01.03.2021

Sensor Min Max Avg
Temp
(Aussen-T/F)
-1.8 °C
01-03-2021  07:20:00
14 °C
01-03-2021  17:20:00
4.3 °C
Feuchte
(Aussen-T/F)
53 %
01-03-2021  15:40:00
97 %
01-03-2021  10:35:00
82.52 %
Taupunkt
(Aussen-T/F)
-2.49 C
01-03-2021  07:20:00
6.12 C
01-03-2021  17:25:00
1.19 C

Die Daten stammen von einer Davis Vantage Pro 2 Wetter-Station und werden unter Linux mit der Software wview2wettercgi und aufbereitet. Alle Angaben erfolgen ohne Gewähr für ihre Vollständigkeit oder Richtigkeit.
Kontakt: Rainer Krienke krienke@uni-koblenz.de . Meine Webseiten an der Uni Koblenz oder privat.
Version: $Revision: 0.78 $